Time,TemperatureF,DewpointF,PressureIn,WindDirection,WindDirectionDegrees,WindSpeedMPH,WindSpeedGustMPH,Humidity,HourlyPrecipIn,Conditions,Clouds,dailyrainin,SoftwareType,DateUTC
2013-02-28 00:00:00,36.9,34.0,29.60,NNW,338,3.6,6.0,89,0.01,,,0.00,WUHU216HW,2013-02-28 05:00:00,
2013-02-28 00:05:00,36.9,34.0,29.61,WNW,293,6.3,6.7,89,0.01,,,0.00,WUHU216HW,2013-02-28 05:05:00,
2013-02-28 00:10:00,36.7,33.8,29.61,NNW,328,2.6,6.7,89,0.00,,,0.00,WUHU216HW,2013-02-28 05:10:00,
2013-02-28 00:15:00,36.7,33.8,29.61,West,270,3.1,6.5,89,0.00,,,0.00,WUHU216HW,2013-02-28 05:15:00,
2013-02-28 00:20:00,36.7,33.8,29.60,NW,315,3.8,4.5,89,0.00,,,0.00,WUHU216HW,2013-02-28 05:20:00,
2013-02-28 00:25:00,36.5,33.6,29.60,NW,319,2.6,5.4,89,0.00,,,0.00,WUHU216HW,2013-02-28 05:25:00,
2013-02-28 00:30:00,36.5,33.6,29.61,WNW,300,1.8,5.4,89,0.00,,,0.00,WUHU216HW,2013-02-28 05:30:00,
2013-02-28 00:35:00,36.5,33.6,29.61,WNW,291,3.2,5.4,89,0.00,,,0.00,WUHU216HW,2013-02-28 05:35:00,
2013-02-28 00:40:00,36.4,33.5,29.61,WNW,293,4.7,5.4,89,0.00,,,0.00,WUHU216HW,2013-02-28 05:40:00,
2013-02-28 00:45:00,36.4,33.5,29.61,NW,311,3.0,6.7,89,0.00,,,0.00,WUHU216HW,2013-02-28 05:45:00,
2013-02-28 00:50:00,36.4,33.5,29.61,WNW,293,3.4,6.7,89,0.00,,,0.00,WUHU216HW,2013-02-28 05:50:00,
2013-02-28 00:55:00,36.4,33.5,29.61,WNW,296,2.7,6.9,89,0.00,,,0.00,WUHU216HW,2013-02-28 05:55:00,
2013-02-28 01:00:00,36.2,33.3,29.61,NW,316,1.0,6.9,89,0.00,,,0.00,WUHU216HW,2013-02-28 06:00:00,
2013-02-28 01:05:00,36.2,33.3,29.61,NW,315,3.1,3.6,89,0.00,,,0.00,WUHU216HW,2013-02-28 06:05:00,
2013-02-28 01:10:00,36.0,33.1,29.61,NW,315,4.5,4.9,89,0.00,,,0.00,WUHU216HW,2013-02-28 06:10:00,
2013-02-28 01:15:00,36.0,33.1,29.61,NNW,327,1.6,4.9,89,0.00,,,0.00,WUHU216HW,2013-02-28 06:15:00,
2013-02-28 01:20:00,36.0,33.1,29.61,NW,316,2.6,5.6,89,0.00,,,0.00,WUHU216HW,2013-02-28 06:20:00,
2013-02-28 01:25:00,36.0,33.1,29.60,NW,320,0.6,5.6,89,0.00,,,0.00,WUHU216HW,2013-02-28 06:25:00,
2013-02-28 01:30:00,35.8,32.9,29.60,NW,315,3.8,3.8,89,0.00,,,0.00,WUHU216HW,2013-02-28 06:30:00,
2013-02-28 01:35:00,35.8,32.9,29.60,WNW,293,3.8,3.8,89,0.00,,,0.00,WUHU216HW,2013-02-28 06:35:00,
2013-02-28 01:40:00,35.8,32.9,29.60,West,270,1.8,3.8,89,0.00,,,0.00,WUHU216HW,2013-02-28 06:40:00,
2013-02-28 01:45:00,35.8,32.9,29.60,NNW,338,3.4,3.8,89,0.00,,,0.00,WUHU216HW,2013-02-28 06:45:00,
2013-02-28 01:50:00,35.8,32.9,29.60,NW,304,1.9,3.4,89,0.00,,,0.00,WUHU216HW,2013-02-28 06:50:00,
2013-02-28 01:55:00,35.8,32.9,29.60,WNW,293,2.2,3.4,89,0.00,,,0.00,WUHU216HW,2013-02-28 06:55:00,
2013-02-28 02:00:00,35.8,32.9,29.60,NW,304,1.5,3.4,89,0.00,,,0.00,WUHU216HW,2013-02-28 07:00:00,
2013-02-28 02:05:00,35.6,32.7,29.60,WNW,303,2.3,3.4,89,0.00,,,0.00,WUHU216HW,2013-02-28 07:05:00,
2013-02-28 02:10:00,35.6,32.7,29.60,NNW,338,1.6,3.4,89,0.00,,,0.00,WUHU216HW,2013-02-28 07:10:00,
2013-02-28 02:15:00,35.6,32.7,29.60,West,267,0.6,2.5,89,0.00,,,0.00,WUHU216HW,2013-02-28 07:15:00,
2013-02-28 02:20:00,35.6,32.7,29.60,NW,315,1.2,3.8,89,0.00,,,0.00,WUHU216HW,2013-02-28 07:20:00,
2013-02-28 02:25:00,35.6,32.7,29.60,NW,313,1.9,3.8,89,0.00,,,0.00,WUHU216HW,2013-02-28 07:25:00,
2013-02-28 02:30:00,35.6,32.7,29.61,WSW,248,1.3,3.1,89,0.00,,,0.00,WUHU216HW,2013-02-28 07:30:00,
2013-02-28 02:35:00,35.6,32.7,29.61,WSW,248,1.8,3.1,89,0.00,,,0.00,WUHU216HW,2013-02-28 07:35:00,
2013-02-28 02:40:00,35.6,32.7,29.61,WNW,292,1.9,2.5,89,0.00,,,0.00,WUHU216HW,2013-02-28 07:40:00,
2013-02-28 02:45:00,35.6,32.7,29.61,West,270,1.3,2.9,89,0.00,,,0.00,WUHU216HW,2013-02-28 07:45:00,
2013-02-28 02:50:00,35.5,32.6,29.61,West,270,1.8,4.0,89,0.00,,,0.00,WUHU216HW,2013-02-28 07:50:00,
2013-02-28 02:55:00,35.5,32.6,29.61,WNW,293,3.1,4.0,89,0.00,,,0.00,WUHU216HW,2013-02-28 07:55:00,
2013-02-28 03:00:00,35.5,32.6,29.62,West,269,2.0,3.6,89,0.00,,,0.00,WUHU216HW,2013-02-28 08:00:00,
2013-02-28 03:05:00,35.3,32.4,29.62,WNW,302,3.0,4.7,89,0.00,,,0.00,WUHU216HW,2013-02-28 08:05:00,
2013-02-28 03:10:00,35.3,32.4,29.61,NNW,338,2.7,4.7,89,0.00,,,0.00,WUHU216HW,2013-02-28 08:10:00,
2013-02-28 03:15:00,35.3,32.4,29.61,NW,314,3.2,4.7,89,0.00,,,0.00,WUHU216HW,2013-02-28 08:15:00,
2013-02-28 03:20:00,35.3,32.4,29.61,NW,316,1.4,4.7,89,0.00,,,0.00,WUHU216HW,2013-02-28 08:20:00,
2013-02-28 03:25:00,35.3,32.4,29.61,NW,315,3.6,3.6,89,0.00,,,0.00,WUHU216HW,2013-02-28 08:25:00,
2013-02-28 03:30:00,35.1,32.2,29.61,WNW,299,2.0,3.6,89,0.00,,,0.00,WUHU216HW,2013-02-28 08:30:00,
2013-02-28 03:35:00,35.1,32.2,29.61,NW,307,2.4,3.6,89,0.00,,,0.00,WUHU216HW,2013-02-28 08:35:00,
2013-02-28 03:40:00,35.1,32.2,29.61,NW,315,2.4,4.0,89,0.00,,,0.00,WUHU216HW,2013-02-28 08:40:00,
2013-02-28 03:45:00,34.9,32.0,29.61,WNW,293,1.6,4.5,89,0.00,,,0.00,WUHU216HW,2013-02-28 08:45:00,
2013-02-28 03:50:00,34.9,32.0,29.62,West,265,0.9,4.5,89,0.00,,,0.00,WUHU216HW,2013-02-28 08:50:00,
2013-02-28 03:55:00,34.9,32.0,29.61,NW,315,0.4,1.8,89,0.00,,,0.00,WUHU216HW,2013-02-28 08:55:00,
2013-02-28 04:00:00,34.9,32.0,29.61,NNW,333,1.0,2.5,89,0.00,,,0.00,WUHU216HW,2013-02-28 09:00:00,
2013-02-28 04:05:00,34.9,32.0,29.62,WNW,293,0.4,2.5,89,0.00,,,0.00,WUHU216HW,2013-02-28 09:05:00,
2013-02-28 04:10:00,34.9,32.0,29.62,NNW,329,0.3,1.8,89,0.00,,,0.00,WUHU216HW,2013-02-28 09:10:00,
2013-02-28 04:15:00,34.9,32.0,29.62,WSW,248,0.4,1.8,89,0.00,,,0.00,WUHU216HW,2013-02-28 09:15:00,
2013-02-28 04:20:00,34.9,32.0,29.61,West,281,1.2,1.3,89,0.00,,,0.00,WUHU216HW,2013-02-28 09:20:00,
2013-02-28 04:25:00,34.9,32.0,29.61,West,280,0.6,1.3,89,0.00,,,0.00,WUHU216HW,2013-02-28 09:25:00,
2013-02-28 04:30:00,34.9,32.0,29.62,WSW,248,0.3,1.3,89,0.00,,,0.00,WUHU216HW,2013-02-28 09:30:00,
2013-02-28 04:35:00,34.9,32.0,29.63,SSW,203,1.1,1.1,89,0.00,,,0.00,WUHU216HW,2013-02-28 09:35:00,
2013-02-28 04:40:00,34.9,32.0,29.63,NW,315,2.0,2.0,89,0.00,,,0.00,WUHU216HW,2013-02-28 09:40:00,
2013-02-28 04:45:00,34.7,31.8,29.63,West,278,0.4,2.0,89,0.00,,,0.00,WUHU216HW,2013-02-28 09:45:00,
2013-02-28 04:50:00,34.7,31.8,29.63,NNW,338,0.4,2.0,89,0.00,,,0.00,WUHU216HW,2013-02-28 09:50:00,
2013-02-28 04:55:00,34.7,31.8,29.63,WNW,293,0.6,1.3,89,0.00,,,0.00,WUHU216HW,2013-02-28 09:55:00,
2013-02-28 05:00:00,34.7,31.8,29.63,WNW,293,0.3,1.3,89,0.00,,,0.00,WUHU216HW,2013-02-28 10:00:00,
2013-02-28 05:05:00,34.7,31.8,29.64,WSW,248,1.1,2.0,89,0.00,,,0.00,WUHU216HW,2013-02-28 10:05:00,
2013-02-28 05:10:00,34.7,31.8,29.64,SW,224,0.5,2.0,89,0.00,,,0.00,WUHU216HW,2013-02-28 10:10:00,
2013-02-28 05:15:00,34.6,31.7,29.64,WNW,296,1.2,2.0,89,0.00,,,0.00,WUHU216HW,2013-02-28 10:15:00,
2013-02-28 05:20:00,34.6,31.7,29.64,West,270,2.5,2.5,89,0.00,,,0.00,WUHU216HW,2013-02-28 10:20:00,
2013-02-28 05:25:00,34.6,31.7,29.65,West,260,2.1,2.9,89,0.00,,,0.00,WUHU216HW,2013-02-28 10:25:00,
2013-02-28 05:30:00,34.6,31.7,29.64,WNW,293,2.0,2.9,89,0.00,,,0.00,WUHU216HW,2013-02-28 10:30:00,
2013-02-28 05:35:00,34.6,31.7,29.64,WNW,297,1.3,2.5,89,0.00,,,0.00,WUHU216HW,2013-02-28 10:35:00,
2013-02-28 05:40:00,34.6,31.7,29.64,WSW,253,1.7,2.5,89,0.00,,,0.00,WUHU216HW,2013-02-28 10:40:00,
2013-02-28 05:45:00,34.6,31.7,29.64,WSW,248,1.6,2.7,89,0.00,,,0.00,WUHU216HW,2013-02-28 10:45:00,
2013-02-28 05:50:00,34.4,31.5,29.64,WNW,294,2.0,2.7,89,0.00,,,0.00,WUHU216HW,2013-02-28 10:50:00,
2013-02-28 05:55:00,34.4,31.5,29.64,NW,315,1.8,2.5,89,0.00,,,0.00,WUHU216HW,2013-02-28 10:55:00,
2013-02-28 06:00:00,34.4,31.5,29.64,West,270,0.8,1.8,89,0.00,,,0.00,WUHU216HW,2013-02-28 11:00:00,
2013-02-28 06:05:00,34.4,31.5,29.64,NW,315,1.8,1.8,89,0.00,,,0.00,WUHU216HW,2013-02-28 11:05:00,
2013-02-28 06:10:00,34.4,31.5,29.64,WSW,248,0.3,1.8,89,0.00,,,0.00,WUHU216HW,2013-02-28 11:10:00,
2013-02-28 06:15:00,34.4,31.5,29.65,WSW,254,0.5,1.8,89,0.00,,,0.00,WUHU216HW,2013-02-28 11:15:00,
2013-02-28 06:20:00,34.4,31.5,29.64,NW,319,0.3,0.9,89,0.00,,,0.00,WUHU216HW,2013-02-28 11:20:00,
2013-02-28 06:25:00,34.4,31.5,29.65,West,270,0.0,1.1,89,0.00,,,0.00,WUHU216HW,2013-02-28 11:25:00,
2013-02-28 06:30:00,34.4,31.5,29.65,West,264,0.3,1.3,89,0.00,,,0.00,WUHU216HW,2013-02-28 11:30:00,
2013-02-28 06:35:00,34.4,31.5,29.65,NW,315,0.0,1.3,89,0.00,,,0.00,WUHU216HW,2013-02-28 11:35:00,
2013-02-28 06:40:00,34.4,31.5,29.65,WNW,293,0.0,0.7,89,0.00,,,0.00,WUHU216HW,2013-02-28 11:40:00,
2013-02-28 06:45:00,34.4,31.5,29.65,WNW,293,0.0,0.7,89,0.00,,,0.00,WUHU216HW,2013-02-28 11:45:00,
2013-02-28 06:50:00,34.4,31.5,29.65,WNW,293,0.5,0.7,89,0.00,,,0.00,WUHU216HW,2013-02-28 11:50:00,
2013-02-28 06:55:00,34.2,31.3,29.65,NW,315,1.1,1.8,89,0.00,,,0.00,WUHU216HW,2013-02-28 11:55:00,
2013-02-28 07:00:00,34.4,31.5,29.65,WNW,298,3.0,4.0,89,0.00,,,0.00,WUHU216HW,2013-02-28 12:00:00,
2013-02-28 07:05:00,34.2,31.3,29.65,NW,308,1.2,4.0,89,0.00,,,0.00,WUHU216HW,2013-02-28 12:05:00,
2013-02-28 07:10:00,34.2,31.3,29.65,NNW,338,1.1,2.5,89,0.00,,,0.00,WUHU216HW,2013-02-28 12:10:00,
2013-02-28 07:15:00,34.2,31.3,29.65,NW,308,0.7,1.8,89,0.00,,,0.00,WUHU216HW,2013-02-28 12:15:00,
2013-02-28 07:20:00,34.2,31.3,29.65,North,0,0.9,1.3,89,0.00,,,0.00,WUHU216HW,2013-02-28 12:20:00,
2013-02-28 07:25:00,34.2,31.3,29.64,NNE,23,0.3,1.3,89,0.00,,,0.00,WUHU216HW,2013-02-28 12:25:00,
2013-02-28 07:30:00,34.4,31.5,29.65,WNW,293,1.8,2.5,89,0.00,,,0.00,WUHU216HW,2013-02-28 12:30:00,
2013-02-28 07:35:00,34.4,31.5,29.65,SSW,203,1.1,2.5,89,0.00,,,0.00,WUHU216HW,2013-02-28 12:35:00,
2013-02-28 07:40:00,34.4,31.5,29.66,NW,310,2.0,2.5,89,0.00,,,0.00,WUHU216HW,2013-02-28 12:40:00,
2013-02-28 07:45:00,34.4,31.5,29.66,WNW,293,1.1,2.5,89,0.00,,,0.00,WUHU216HW,2013-02-28 12:45:00,
2013-02-28 07:50:00,34.4,31.5,29.66,West,279,0.4,1.8,89,0.00,,,0.00,WUHU216HW,2013-02-28 12:50:00,
2013-02-28 07:55:00,34.6,31.7,29.66,West,270,1.6,1.6,89,0.00,,,0.00,WUHU216HW,2013-02-28 12:55:00,
2013-02-28 08:00:00,34.6,31.7,29.66,WSW,247,0.5,1.6,89,0.00,,,0.00,WUHU216HW,2013-02-28 13:00:00,
2013-02-28 08:05:00,34.7,31.8,29.66,WSW,253,0.6,1.6,89,0.00,,,0.00,WUHU216HW,2013-02-28 13:05:00,
2013-02-28 08:10:00,34.7,31.8,29.65,SW,225,0.2,1.6,89,0.00,,,0.00,WUHU216HW,2013-02-28 13:10:00,
2013-02-28 08:15:00,34.9,32.0,29.65,WSW,248,0.2,1.3,89,0.00,,,0.00,WUHU216HW,2013-02-28 13:15:00,
2013-02-28 08:20:00,35.1,32.2,29.65,West,270,1.1,2.0,89,0.00,,,0.00,WUHU216HW,2013-02-28 13:20:00,
2013-02-28 08:25:00,35.1,32.2,29.66,WSW,238,2.2,3.6,89,0.00,,,0.00,WUHU216HW,2013-02-28 13:25:00,
2013-02-28 08:30:00,35.3,32.4,29.66,SSE,158,0.7,3.6,89,0.00,,,0.00,WUHU216HW,2013-02-28 13:30:00,
2013-02-28 08:35:00,35.3,32.4,29.66,SSE,158,0.4,1.3,89,0.00,,,0.00,WUHU216HW,2013-02-28 13:35:00,
2013-02-28 08:40:00,35.5,32.6,29.67,SSW,203,1.8,2.2,89,0.00,,,0.00,WUHU216HW,2013-02-28 13:40:00,
2013-02-28 08:45:00,35.6,32.7,29.67,SE,146,0.8,2.2,89,0.00,,,0.00,WUHU216HW,2013-02-28 13:45:00,
2013-02-28 08:50:00,35.6,32.7,29.67,SSW,203,0.9,3.4,89,0.00,,,0.00,WUHU216HW,2013-02-28 13:50:00,
2013-02-28 08:55:00,35.6,32.7,29.67,ENE,70,0.8,3.4,89,0.00,,,0.00,WUHU216HW,2013-02-28 13:55:00,
2013-02-28 09:00:00,35.6,32.7,29.67,WSW,258,0.9,1.1,89,0.00,,,0.00,WUHU216HW,2013-02-28 14:00:00,
2013-02-28 09:05:00,35.6,32.7,29.67,SSE,158,0.4,1.1,89,0.00,,,0.00,WUHU216HW,2013-02-28 14:05:00,
2013-02-28 09:10:00,35.8,32.9,29.67,WNW,293,0.4,1.1,89,0.00,,,0.00,WUHU216HW,2013-02-28 14:10:00,
2013-02-28 09:15:00,36.0,33.1,29.67,South,171,0.4,1.3,89,0.00,,,0.00,WUHU216HW,2013-02-28 14:15:00,
2013-02-28 09:20:00,36.2,33.3,29.67,West,263,1.8,3.4,89,0.00,,,0.00,WUHU216HW,2013-02-28 14:20:00,
2013-02-28 09:25:00,36.4,33.5,29.67,SSE,163,1.0,3.4,89,0.00,,,0.00,WUHU216HW,2013-02-28 14:25:00,
2013-02-28 09:30:00,36.4,33.5,29.66,SW,220,0.4,2.0,89,0.00,,,0.00,WUHU216HW,2013-02-28 14:30:00,
2013-02-28 09:35:00,36.5,33.6,29.66,SSE,158,1.1,1.1,89,0.00,,,0.00,WUHU216HW,2013-02-28 14:35:00,
2013-02-28 09:40:00,36.7,33.5,29.66,South,182,1.7,2.7,88,0.00,,,0.00,WUHU216HW,2013-02-28 14:40:00,
2013-02-28 09:45:00,36.9,33.7,29.66,SE,141,0.7,2.7,88,0.00,,,0.00,WUHU216HW,2013-02-28 14:45:00,
2013-02-28 09:50:00,37.1,33.9,29.66,South,189,1.7,4.0,88,0.00,,,0.00,WUHU216HW,2013-02-28 14:50:00,
2013-02-28 09:55:00,37.3,34.1,29.66,SE,144,1.0,4.0,88,0.00,,,0.00,WUHU216HW,2013-02-28 14:55:00,
2013-02-28 10:00:00,37.4,34.2,29.65,West,269,1.4,3.4,88,0.00,,,0.00,WUHU216HW,2013-02-28 15:00:00,
2013-02-28 10:05:00,37.6,34.4,29.65,WSW,256,2.9,4.5,88,0.00,,,0.00,WUHU216HW,2013-02-28 15:05:00,
2013-02-28 10:10:00,37.8,34.6,29.65,SSW,198,0.9,4.5,88,0.00,,,0.00,WUHU216HW,2013-02-28 15:10:00,
2013-02-28 10:15:00,37.8,34.6,29.64,WNW,298,1.1,2.5,88,0.00,,,0.00,WUHU216HW,2013-02-28 15:15:00,
2013-02-28 10:20:00,37.8,34.6,29.64,SE,130,0.4,2.0,88,0.00,,,0.00,WUHU216HW,2013-02-28 15:20:00,
2013-02-28 10:25:00,38.0,34.8,29.65,West,266,0.3,1.8,88,0.00,,,0.00,WUHU216HW,2013-02-28 15:25:00,
2013-02-28 10:30:00,38.2,35.0,29.65,SSE,158,1.1,1.8,88,0.00,,,0.00,WUHU216HW,2013-02-28 15:30:00,
2013-02-28 10:35:00,38.3,35.1,29.66,SSW,203,1.3,1.8,88,0.00,,,0.00,WUHU216HW,2013-02-28 15:35:00,
2013-02-28 10:40:00,38.5,35.3,29.66,West,277,1.4,2.5,88,0.00,,,0.00,WUHU216HW,2013-02-28 15:40:00,
2013-02-28 10:45:00,38.5,35.3,29.66,WSW,244,1.3,2.7,88,0.00,,,0.00,WUHU216HW,2013-02-28 15:45:00,
2013-02-28 10:50:00,38.7,35.5,29.66,South,169,1.0,2.7,88,0.00,,,0.00,WUHU216HW,2013-02-28 15:50:00,
2013-02-28 10:55:00,38.9,35.4,29.66,WNW,293,2.2,2.2,87,0.00,,,0.00,WUHU216HW,2013-02-28 15:55:00,
2013-02-28 11:00:00,39.1,35.9,29.66,WNW,293,2.5,3.8,88,0.00,,,0.00,WUHU216HW,2013-02-28 16:00:00,
2013-02-28 11:05:00,39.2,36.0,29.66,WSW,248,4.9,5.6,88,0.00,,,0.00,WUHU216HW,2013-02-28 16:05:00,
2013-02-28 11:10:00,39.4,36.2,29.66,SW,225,3.6,5.6,88,0.00,,,0.00,WUHU216HW,2013-02-28 16:10:00,
2013-02-28 11:15:00,39.4,36.2,29.66,WNW,284,1.8,5.4,88,0.00,,,0.00,WUHU216HW,2013-02-28 16:15:00,
2013-02-28 11:20:00,39.6,36.4,29.66,SW,225,4.3,6.3,88,0.00,,,0.00,WUHU216HW,2013-02-28 16:20:00,
2013-02-28 11:25:00,39.8,36.6,29.66,WSW,249,3.1,6.3,88,0.00,,,0.00,WUHU216HW,2013-02-28 16:25:00,
2013-02-28 11:30:00,39.8,36.6,29.65,WNW,293,3.4,5.4,88,0.00,,,0.00,WUHU216HW,2013-02-28 16:30:00,
2013-02-28 11:35:00,40.0,36.5,29.65,WSW,258,3.4,5.4,87,0.00,,,0.00,WUHU216HW,2013-02-28 16:35:00,
2013-02-28 11:40:00,40.0,36.5,29.65,WSW,256,4.1,5.4,87,0.00,,,0.00,WUHU216HW,2013-02-28 16:40:00,
2013-02-28 11:45:00,40.0,36.3,29.65,WSW,258,3.7,5.4,86,0.00,,,0.00,WUHU216HW,2013-02-28 16:45:00,
2013-02-28 11:50:00,40.0,36.3,29.65,WSW,248,2.7,4.7,86,0.00,,,0.00,WUHU216HW,2013-02-28 16:50:00,
2013-02-28 11:55:00,40.1,36.4,29.64,West,270,3.6,4.7,86,0.00,,,0.00,WUHU216HW,2013-02-28 16:55:00,
2013-02-28 12:00:00,40.1,36.4,29.64,WSW,248,2.7,3.8,86,0.00,,,0.00,WUHU216HW,2013-02-28 17:00:00,
2013-02-28 12:05:00,40.1,36.4,29.64,NE,49,0.5,3.6,86,0.00,,,0.00,WUHU216HW,2013-02-28 17:05:00,
2013-02-28 12:11:00,40.3,36.6,29.64,NW,315,1.1,3.1,86,0.00,,,0.00,WUHU216HW,2013-02-28 17:11:00,
2013-02-28 12:16:00,40.5,36.7,29.64,SSE,165,1.2,2.0,86,0.00,,,0.00,WUHU216HW,2013-02-28 17:16:00,
2013-02-28 12:21:00,40.7,36.9,29.63,WSW,237,0.8,1.6,86,0.00,,,0.00,WUHU216HW,2013-02-28 17:21:00,
2013-02-28 12:26:00,40.7,36.9,29.63,West,260,1.1,1.8,86,0.00,,,0.00,WUHU216HW,2013-02-28 17:26:00,
2013-02-28 12:31:00,40.7,36.9,29.63,WNW,293,3.4,3.4,86,0.00,,,0.00,WUHU216HW,2013-02-28 17:31:00,
2013-02-28 12:36:00,40.9,37.1,29.63,WNW,295,0.4,3.4,86,0.00,,,0.00,WUHU216HW,2013-02-28 17:36:00,
2013-02-28 12:41:00,40.9,37.1,29.62,WSW,255,1.8,3.4,86,0.00,,,0.00,WUHU216HW,2013-02-28 17:41:00,
2013-02-28 12:46:00,41.0,37.2,29.62,NW,315,1.3,3.1,86,0.00,,,0.00,WUHU216HW,2013-02-28 17:46:00,
2013-02-28 12:51:00,41.2,37.2,29.62,NE,45,2.5,2.5,86,0.00,,,0.00,WUHU216HW,2013-02-28 17:51:00,
2013-02-28 12:56:00,41.4,37.4,29.61,SSW,203,0.9,2.5,86,0.00,,,0.00,WUHU216HW,2013-02-28 17:56:00,
2013-02-28 13:01:00,41.8,37.8,29.61,NW,315,1.1,2.5,86,0.00,,,0.00,WUHU216HW,2013-02-28 18:01:00,
2013-02-28 13:06:00,41.9,37.6,29.61,WSW,250,2.3,3.4,85,0.00,,,0.00,WUHU216HW,2013-02-28 18:06:00,
2013-02-28 13:11:00,42.3,38.0,29.60,NNW,338,2.9,3.4,85,0.00,,,0.00,WUHU216HW,2013-02-28 18:11:00,
2013-02-28 13:16:00,42.7,38.1,29.60,WNW,293,0.9,2.9,84,0.00,,,0.00,WUHU216HW,2013-02-28 18:16:00,
2013-02-28 13:21:00,42.8,38.2,29.60,West,270,2.9,3.4,84,0.00,,,0.00,WUHU216HW,2013-02-28 18:21:00,
2013-02-28 13:26:00,43.2,38.3,29.60,WSW,248,1.6,4.0,83,0.00,,,0.00,WUHU216HW,2013-02-28 18:26:00,
2013-02-28 13:31:00,43.4,38.8,29.60,SSW,209,0.9,4.0,84,0.00,,,0.00,WUHU216HW,2013-02-28 18:31:00,
2013-02-28 13:36:00,43.7,39.1,29.60,NW,315,4.7,4.7,84,0.00,,,0.00,WUHU216HW,2013-02-28 18:36:00,
2013-02-28 13:41:00,43.9,39.3,29.60,North,0,1.1,4.7,84,0.00,,,0.00,WUHU216HW,2013-02-28 18:41:00,
2013-02-28 13:46:00,43.9,39.3,29.60,NW,314,2.6,4.7,84,0.00,,,0.00,WUHU216HW,2013-02-28 18:46:00,
2013-02-28 13:51:00,43.7,38.5,29.60,North,357,4.0,6.9,82,0.00,,,0.00,WUHU216HW,2013-02-28 18:51:00,
2013-02-28 13:56:00,43.7,38.8,29.60,NNW,338,1.6,6.9,83,0.00,,,0.00,WUHU216HW,2013-02-28 18:56:00,
2013-02-28 14:01:00,43.9,39.0,29.60,West,270,2.2,3.1,83,0.00,,,0.00,WUHU216HW,2013-02-28 19:01:00,
2013-02-28 14:06:00,43.9,39.0,29.59,West,270,2.0,3.8,83,0.00,,,0.00,WUHU216HW,2013-02-28 19:06:00,
2013-02-28 14:11:00,44.1,38.9,29.59,West,260,2.4,4.7,82,0.00,,,0.00,WUHU216HW,2013-02-28 19:11:00,
2013-02-28 14:16:00,44.1,38.9,29.59,SE,135,2.0,4.7,82,0.00,,,0.00,WUHU216HW,2013-02-28 19:16:00,
2013-02-28 14:21:00,44.1,38.9,29.59,SE,135,0.6,3.1,82,0.00,,,0.00,WUHU216HW,2013-02-28 19:21:00,
2013-02-28 14:26:00,44.1,38.9,29.59,SW,234,1.3,2.7,82,0.00,,,0.00,WUHU216HW,2013-02-28 19:26:00,
2013-02-28 14:31:00,44.1,38.9,29.59,South,186,0.5,2.7,82,0.00,,,0.00,WUHU216HW,2013-02-28 19:31:00,
2013-02-28 14:36:00,44.1,39.2,29.59,WSW,248,0.4,1.3,83,0.00,,,0.00,WUHU216HW,2013-02-28 19:36:00,
2013-02-28 14:41:00,44.3,39.4,29.58,West,270,1.1,1.8,83,0.00,,,0.00,WUHU216HW,2013-02-28 19:41:00,
2013-02-28 14:46:00,44.3,39.4,29.58,North,10,1.4,2.5,83,0.00,,,0.00,WUHU216HW,2013-02-28 19:46:00,
2013-02-28 14:51:00,44.3,39.4,29.58,NW,315,1.1,3.4,83,0.00,,,0.00,WUHU216HW,2013-02-28 19:51:00,
2013-02-28 14:56:00,44.3,39.1,29.58,WNW,293,1.8,3.4,82,0.00,,,0.00,WUHU216HW,2013-02-28 19:56:00,
2013-02-28 15:01:00,44.3,39.1,29.58,NW,323,2.3,3.8,82,0.00,,,0.00,WUHU216HW,2013-02-28 20:01:00,
2013-02-28 15:06:00,44.3,39.1,29.58,West,270,3.4,3.8,82,0.00,,,0.00,WUHU216HW,2013-02-28 20:06:00,
2013-02-28 15:11:00,44.3,38.8,29.58,NNW,338,2.2,3.4,81,0.00,,,0.00,WUHU216HW,2013-02-28 20:11:00,
2013-02-28 15:16:00,44.3,38.8,29.58,NW,313,1.5,3.4,81,0.00,,,0.00,WUHU216HW,2013-02-28 20:16:00,
2013-02-28 15:21:00,44.3,38.8,29.57,WNW,283,5.0,6.0,81,0.00,,,0.00,WUHU216HW,2013-02-28 20:21:00,
2013-02-28 15:26:00,44.5,39.0,29.57,WNW,300,4.5,6.0,81,0.00,,,0.00,WUHU216HW,2013-02-28 20:26:00,
2013-02-28 15:31:00,44.6,39.1,29.57,WNW,293,2.7,5.4,81,0.00,,,0.00,WUHU216HW,2013-02-28 20:31:00,
2013-02-28 15:36:00,44.6,38.8,29.57,North,353,2.7,4.9,80,0.00,,,0.00,WUHU216HW,2013-02-28 20:36:00,
2013-02-28 15:41:00,44.6,38.8,29.57,NNE,28,3.4,4.9,80,0.00,,,0.00,WUHU216HW,2013-02-28 20:41:00,
2013-02-28 15:46:00,44.8,38.7,29.57,North,0,2.9,4.5,79,0.00,,,0.00,WUHU216HW,2013-02-28 20:46:00,
2013-02-28 15:51:00,44.6,38.5,29.58,NE,45,1.1,3.6,79,0.00,,,0.00,WUHU216HW,2013-02-28 20:51:00,
2013-02-28 15:56:00,44.6,38.8,29.57,NW,315,1.1,2.9,80,0.00,,,0.00,WUHU216HW,2013-02-28 20:56:00,
2013-02-28 16:01:00,44.8,39.0,29.57,NNW,338,1.4,2.5,80,0.00,,,0.00,WUHU216HW,2013-02-28 21:01:00,
2013-02-28 16:06:00,44.6,38.5,29.57,NW,315,1.8,4.9,79,0.00,,,0.00,WUHU216HW,2013-02-28 21:06:00,
2013-02-28 16:11:00,44.6,38.5,29.57,NNW,338,1.1,4.9,79,0.00,,,0.00,WUHU216HW,2013-02-28 21:11:00,
2013-02-28 16:16:00,44.6,38.8,29.57,North,354,0.8,2.7,80,0.00,,,0.00,WUHU216HW,2013-02-28 21:16:00,
2013-02-28 16:21:00,44.6,38.8,29.57,NNW,334,1.5,2.7,80,0.00,,,0.00,WUHU216HW,2013-02-28 21:21:00,
2013-02-28 16:26:00,44.6,38.5,29.57,NW,313,1.4,2.7,79,0.00,,,0.00,WUHU216HW,2013-02-28 21:26:00,
2013-02-28 16:31:00,44.5,38.7,29.57,WNW,295,2.0,2.9,80,0.00,,,0.00,WUHU216HW,2013-02-28 21:31:00,
2013-02-28 16:36:00,44.3,38.5,29.58,WNW,293,2.0,2.9,80,0.00,,,0.00,WUHU216HW,2013-02-28 21:36:00,
2013-02-28 16:41:00,44.3,38.5,29.58,WNW,298,2.6,3.1,80,0.00,,,0.00,WUHU216HW,2013-02-28 21:41:00,
2013-02-28 16:46:00,44.1,38.0,29.58,West,270,1.8,3.1,79,0.00,,,0.00,WUHU216HW,2013-02-28 21:46:00,
2013-02-28 16:51:00,43.9,38.1,29.58,NW,311,1.2,2.7,80,0.00,,,0.00,WUHU216HW,2013-02-28 21:51:00,
2013-02-28 16:56:00,43.9,38.1,29.58,WNW,296,1.9,2.9,80,0.00,,,0.00,WUHU216HW,2013-02-28 21:56:00,
2013-02-28 17:01:00,43.9,38.1,29.58,NW,309,1.3,2.9,80,0.00,,,0.00,WUHU216HW,2013-02-28 22:01:00,
2013-02-28 17:06:00,43.7,37.9,29.58,NW,318,1.3,2.9,80,0.00,,,0.00,WUHU216HW,2013-02-28 22:06:00,
2013-02-28 17:11:00,43.6,37.8,29.58,NW,305,1.2,2.7,80,0.00,,,0.00,WUHU216HW,2013-02-28 22:11:00,
2013-02-28 17:16:00,43.6,37.8,29.58,NW,315,0.9,2.7,80,0.00,,,0.00,WUHU216HW,2013-02-28 22:16:00,
2013-02-28 17:21:00,43.4,37.9,29.58,NW,315,0.5,1.1,81,0.00,,,0.00,WUHU216HW,2013-02-28 22:21:00,
2013-02-28 17:26:00,43.2,37.7,29.58,NW,315,0.0,0.9,81,0.00,,,0.00,WUHU216HW,2013-02-28 22:26:00,
2013-02-28 17:31:00,43.0,37.5,29.58,NW,315,0.2,0.2,81,0.00,,,0.00,WUHU216HW,2013-02-28 22:31:00,
2013-02-28 17:36:00,42.8,37.3,29.58,WNW,293,0.4,0.7,81,0.00,,,0.00,WUHU216HW,2013-02-28 22:36:00,
2013-02-28 17:41:00,42.7,37.2,29.58,WNW,293,0.7,0.7,81,0.00,,,0.00,WUHU216HW,2013-02-28 22:41:00,
2013-02-28 17:46:00,42.5,37.0,29.58,WNW,293,0.4,0.9,81,0.00,,,0.00,WUHU216HW,2013-02-28 22:46:00,
2013-02-28 17:51:00,42.3,36.8,29.58,WNW,293,0.9,0.9,81,0.00,,,0.00,WUHU216HW,2013-02-28 22:51:00,
2013-02-28 17:56:00,42.1,36.6,29.58,WNW,293,0.5,1.1,81,0.00,,,0.00,WUHU216HW,2013-02-28 22:56:00,
2013-02-28 18:01:00,41.9,36.4,29.58,NNW,338,0.7,1.1,81,0.00,,,0.00,WUHU216HW,2013-02-28 23:01:00,
2013-02-28 18:06:00,41.8,36.3,29.58,NW,315,1.0,1.8,81,0.00,,,0.00,WUHU216HW,2013-02-28 23:06:00,
2013-02-28 18:11:00,41.6,36.1,29.58,NW,315,0.8,1.8,81,0.00,,,0.00,WUHU216HW,2013-02-28 23:11:00,
2013-02-28 18:16:00,41.4,35.9,29.58,NW,315,2.0,2.0,81,0.00,,,0.00,WUHU216HW,2013-02-28 23:16:00,
2013-02-28 18:21:00,41.4,36.2,29.58,WNW,293,1.1,2.0,82,0.00,,,0.00,WUHU216HW,2013-02-28 23:21:00,
2013-02-28 18:26:00,41.4,36.2,29.58,NW,320,0.5,2.0,82,0.00,,,0.00,WUHU216HW,2013-02-28 23:26:00,
2013-02-28 18:31:00,41.8,36.9,29.58,NW,311,1.4,2.0,83,0.00,,,0.00,WUHU216HW,2013-02-28 23:31:00,
2013-02-28 18:36:00,41.8,36.9,29.58,NW,320,1.5,2.5,83,0.00,,,0.00,WUHU216HW,2013-02-28 23:36:00,
2013-02-28 18:41:00,41.8,36.9,29.58,NW,304,1.4,2.5,83,0.00,,,0.00,WUHU216HW,2013-02-28 23:41:00,
2013-02-28 18:46:00,41.6,36.4,29.58,NW,320,1.8,2.9,82,0.00,,,0.00,WUHU216HW,2013-02-28 23:46:00,
2013-02-28 18:51:00,41.6,36.4,29.58,NW,318,1.7,2.9,82,0.00,,,0.00,WUHU216HW,2013-02-28 23:51:00,
2013-02-28 18:56:00,41.4,36.2,29.58,NNW,338,0.9,2.5,82,0.00,,,0.00,WUHU216HW,2013-02-28 23:56:00,
2013-02-28 19:01:00,41.4,36.2,29.58,NNW,331,1.0,2.2,82,0.00,,,0.00,WUHU216HW,2013-03-01 00:01:00,
2013-02-28 19:06:00,41.2,36.0,29.58,NW,326,0.6,1.6,82,0.00,,,0.00,WUHU216HW,2013-03-01 00:06:00,
2013-02-28 19:11:00,41.0,35.8,29.58,North,351,0.5,1.1,82,0.00,,,0.00,WUHU216HW,2013-03-01 00:11:00,
2013-02-28 19:16:00,40.7,35.5,29.58,NNW,338,0.3,1.1,82,0.00,,,0.00,WUHU216HW,2013-03-01 00:16:00,
2013-02-28 19:21:00,40.7,35.5,29.58,NNW,338,0.5,1.1,82,0.00,,,0.00,WUHU216HW,2013-03-01 00:21:00,
2013-02-28 19:26:00,40.5,35.4,29.58,North,0,0.2,1.1,82,0.00,,,0.00,WUHU216HW,2013-03-01 00:26:00,
2013-02-28 19:31:00,40.1,35.0,29.58,NNW,338,0.9,1.1,82,0.00,,,0.00,WUHU216HW,2013-03-01 00:31:00,
2013-02-28 19:36:00,40.0,34.9,29.58,NW,315,1.3,1.3,82,0.00,,,0.00,WUHU216HW,2013-03-01 00:36:00,
2013-02-28 19:41:00,39.8,34.9,29.58,NW,315,1.8,1.8,83,0.00,,,0.00,WUHU216HW,2013-03-01 00:41:00,
2013-02-28 19:46:00,39.4,34.6,29.58,NW,315,2.0,2.2,83,0.00,,,0.00,WUHU216HW,2013-03-01 00:46:00,
2013-02-28 19:51:00,39.2,34.4,29.58,NW,315,1.8,2.2,83,0.00,,,0.00,WUHU216HW,2013-03-01 00:51:00,
2013-02-28 19:56:00,39.1,34.3,29.58,NNW,338,0.8,2.0,83,0.00,,,0.00,WUHU216HW,2013-03-01 00:56:00,
2013-02-28 20:01:00,38.9,34.1,29.58,NW,315,0.2,2.0,83,0.00,,,0.00,WUHU216HW,2013-03-01 01:01:00,
2013-02-28 20:06:00,38.7,33.9,29.58,NW,315,0.0,1.1,83,0.00,,,0.00,WUHU216HW,2013-03-01 01:06:00,
2013-02-28 20:11:00,38.5,33.7,29.58,NNW,338,0.4,1.1,83,0.00,,,0.00,WUHU216HW,2013-03-01 01:11:00,
2013-02-28 20:16:00,38.5,33.7,29.58,North,0,0.4,1.1,83,0.00,,,0.00,WUHU216HW,2013-03-01 01:16:00,
2013-02-28 20:21:00,38.3,33.5,29.58,North,0,0.2,0.9,83,0.00,,,0.00,WUHU216HW,2013-03-01 01:21:00,
2013-02-28 20:26:00,38.2,33.4,29.58,North,0,0.4,1.1,83,0.00,,,0.00,WUHU216HW,2013-03-01 01:26:00,
2013-02-28 20:31:00,38.2,33.7,29.58,North,0,0.0,1.1,84,0.00,,,0.00,WUHU216HW,2013-03-01 01:31:00,
2013-02-28 20:36:00,38.0,33.5,29.58,NW,315,0.9,1.8,84,0.00,,,0.00,WUHU216HW,2013-03-01 01:36:00,
2013-02-28 20:41:00,37.8,33.3,29.58,NNW,338,0.5,1.8,84,0.00,,,0.00,WUHU216HW,2013-03-01 01:41:00,
2013-02-28 20:46:00,37.8,33.3,29.58,NW,324,1.0,1.6,84,0.00,,,0.00,WUHU216HW,2013-03-01 01:46:00,
2013-02-28 20:51:00,37.8,33.3,29.58,WNW,295,1.2,1.6,84,0.00,,,0.00,WUHU216HW,2013-03-01 01:51:00,
2013-02-28 20:56:00,37.8,33.5,29.58,WNW,295,0.6,1.6,85,0.00,,,0.00,WUHU216HW,2013-03-01 01:56:00,
2013-02-28 21:01:00,37.8,33.5,29.58,WNW,293,0.0,1.6,85,0.00,,,0.00,WUHU216HW,2013-03-01 02:01:00,
2013-02-28 21:06:00,37.6,33.3,29.58,ESE,113,0.9,0.9,85,0.00,,,0.00,WUHU216HW,2013-03-01 02:06:00,
2013-02-28 21:11:00,37.3,32.8,29.58,South,174,0.5,1.1,84,0.00,,,0.00,WUHU216HW,2013-03-01 02:11:00,
2013-02-28 21:16:00,37.1,32.6,29.58,WSW,248,0.3,1.1,84,0.00,,,0.00,WUHU216HW,2013-03-01 02:16:00,
2013-02-28 21:21:00,37.1,32.6,29.58,West,270,1.1,1.1,84,0.00,,,0.00,WUHU216HW,2013-03-01 02:21:00,
2013-02-28 21:26:00,37.1,32.6,29.58,West,270,1.6,1.6,84,0.00,,,0.00,WUHU216HW,2013-03-01 02:26:00,
2013-02-28 21:31:00,37.1,32.6,29.58,West,270,1.1,1.6,84,0.00,,,0.00,WUHU216HW,2013-03-01 02:31:00,
2013-02-28 21:36:00,36.9,32.7,29.58,WSW,251,0.7,1.6,85,0.00,,,0.00,WUHU216HW,2013-03-01 02:36:00,
2013-02-28 21:41:00,36.9,32.7,29.58,SW,225,0.0,1.3,85,0.00,,,0.00,WUHU216HW,2013-03-01 02:41:00,
2013-02-28 21:46:00,36.7,32.5,29.57,West,270,0.2,1.3,85,0.00,,,0.00,WUHU216HW,2013-03-01 02:46:00,
2013-02-28 21:51:00,36.7,32.5,29.57,West,270,0.5,0.9,85,0.00,,,0.00,WUHU216HW,2013-03-01 02:51:00,
2013-02-28 21:56:00,36.7,32.5,29.57,West,270,0.0,0.9,85,0.00,,,0.00,WUHU216HW,2013-03-01 02:56:00,
2013-02-28 22:01:00,36.7,32.5,29.57,NW,312,0.6,0.7,85,0.00,,,0.00,WUHU216HW,2013-03-01 03:01:00,
2013-02-28 22:06:00,36.5,32.3,29.57,NW,315,0.0,0.7,85,0.00,,,0.00,WUHU216HW,2013-03-01 03:06:00,
2013-02-28 22:11:00,36.5,32.3,29.57,SSE,158,0.4,0.4,85,0.00,,,0.00,WUHU216HW,2013-03-01 03:11:00,
2013-02-28 22:16:00,36.4,32.2,29.57,SSE,158,1.0,1.1,85,0.00,,,0.00,WUHU216HW,2013-03-01 03:16:00,
2013-02-28 22:21:00,36.4,32.2,29.57,SSE,158,0.4,1.1,85,0.00,,,0.00,WUHU216HW,2013-03-01 03:21:00,
2013-02-28 22:26:00,36.4,32.2,29.57,SSE,158,0.0,0.9,85,0.00,,,0.00,WUHU216HW,2013-03-01 03:26:00,
2013-02-28 22:31:00,36.4,32.2,29.57,SSE,158,0.0,0.4,85,0.00,,,0.00,WUHU216HW,2013-03-01 03:31:00,
2013-02-28 22:36:00,36.4,32.2,29.57,SSE,158,0.0,0.0,85,0.00,,,0.00,WUHU216HW,2013-03-01 03:36:00,
2013-02-28 22:41:00,36.4,32.2,29.57,West,268,0.9,1.1,85,0.00,,,0.00,WUHU216HW,2013-03-01 03:41:00,
2013-02-28 22:46:00,36.2,32.0,29.57,WNW,293,0.7,1.1,85,0.00,,,0.00,WUHU216HW,2013-03-01 03:46:00,
2013-02-28 22:51:00,36.2,32.0,29.57,WNW,293,0.9,1.1,85,0.00,,,0.00,WUHU216HW,2013-03-01 03:51:00,
2013-02-28 22:56:00,36.2,32.2,29.57,WNW,293,0.6,1.1,86,0.00,,,0.00,WUHU216HW,2013-03-01 03:56:00,
2013-02-28 23:01:00,36.0,32.0,29.57,West,270,1.1,1.1,86,0.00,,,0.00,WUHU216HW,2013-03-01 04:01:00,
2013-02-28 23:06:00,36.0,32.0,29.57,West,270,0.4,1.1,86,0.00,,,0.00,WUHU216HW,2013-03-01 04:06:00,
2013-02-28 23:11:00,36.0,32.0,29.57,West,270,0.0,1.1,86,0.00,,,0.00,WUHU216HW,2013-03-01 04:11:00,
2013-02-28 23:16:00,36.0,32.0,29.57,West,270,0.0,0.0,86,0.00,,,0.00,WUHU216HW,2013-03-01 04:16:00,
2013-02-28 23:21:00,36.0,32.0,29.57,West,270,0.0,0.0,86,0.00,,,0.00,WUHU216HW,2013-03-01 04:21:00,
2013-02-28 23:26:00,36.0,32.0,29.56,West,270,0.0,0.0,86,0.00,,,0.00,WUHU216HW,2013-03-01 04:26:00,
2013-02-28 23:31:00,36.0,32.0,29.57,West,270,0.4,0.4,86,0.00,,,0.00,WUHU216HW,2013-03-01 04:31:00,
2013-02-28 23:36:00,36.0,32.0,29.57,West,270,0.0,0.4,86,0.00,,,0.00,WUHU216HW,2013-03-01 04:36:00,
2013-02-28 23:41:00,35.8,31.9,29.57,West,270,0.0,0.7,86,0.00,,,0.00,WUHU216HW,2013-03-01 04:41:00,
2013-02-28 23:46:00,36.0,32.0,29.57,West,270,0.0,0.7,86,0.00,,,0.00,WUHU216HW,2013-03-01 04:46:00,
2013-02-28 23:51:00,35.8,31.9,29.57,WNW,293,0.4,0.9,86,0.00,,,0.00,WUHU216HW,2013-03-01 04:51:00,
2013-02-28 23:56:00,35.8,31.9,29.57,NW,315,0.7,0.9,86,0.00,,,0.00,WUHU216HW,2013-03-01 04:56:00,